Weather in Pacha

Russia / Vologda Oblast     59°10′46″N   38°18′41″E
temp.,
°C
wind,
m/s
gust,
m/s
humid.,
%
clouds,
%
prec.,
mm/h
press.,
hPa
HPBL,
m
26 july, mon
mon2600:00+16w245894 0.0 102082
03:00+12w35797 0.0 102089
06:00+14wsw267358 0.0 1021154
09:00+17w3659100 0.0 1020299
12:00+20w365498 0.0 1020546
15:00+25wnw4736100 0.0 10182505
18:00+22w36487 0.0 1019326
21:00+17wnw227498 0.1 101920
27 july, tue
tue2700:00+15nw22785 0.0 102033
03:00+13nnw119050 0.2 102110
06:00+15w228374 0.1 102076
09:00+22w355876 0.3 1020622
12:00+25nw464342 0.0 10191531
15:00+24nnw354988 0.0 1018733
18:00+18ne138282 0.7 1018119
21:00+16s22934 1.4 101729
28 july, wed
wed2800:00+14s00930 0.0 101811
03:00+13ese11955 0.1 101712
06:00+15se23936 0.0 101689
09:00+21sse23675 0.0 1015542
12:00+26ssw33435 0.0 10131429
15:00+27ssw343811 0.0 10111496
18:00+26s344491 0.0 1009577
21:00+19ssw2272100 0.0 100842
29 july, thu
thu2900:00+17w3891100 0.5 1007272
03:00+16ese1299100 4.6 100554
06:00+17ssw389784 0.2 1004492
09:00+19wsw468882 0.4 1002600
12:00+21w5882100 0.9 10011184
15:00+23wnw6963100 1.5 10011356
18:00+21wnw5979100 1.2 1001613
21:00+17wnw35878 1.7 1001105
30 july, fri
fri3000:00+16wsw269475 0.7 1002107
03:00+15wsw3109611 0.8 1002246
06:00+15wsw39955 0.0 1003294
09:00+21wsw4766100 0.0 1003799
12:00+25sw6945100 0.1 10022266
15:00+25sw5945100 0.2 10011883
18:00+24wsw6104250 0.0 10011687
21:00+19sw41058100 0.0 1001313